Overview Statistics Trail Chart Weather Telemetry Raw packets
 

This is the latest recevied weather packets stored in our database for station/object NB9X. If no packets are shown the sender has not sent any weather packets the latest 10 day(s).

<< 14 15 16 17 18 19 20 >>
Time Temp. Humidity Pressure Rain* Wind** Luminosity Snow
1788552559 33.89° C 100% 1012.6 hPa 0 mm - - -
1788552259 35° C 100% 1012.8 hPa 0 mm - - -
1788551959 33.89° C 100% 1012.8 hPa 0 mm - - -
1788551659 33.33° C 100% 1012.7 hPa 0 mm - - -
1788551359 33.89° C 100% 1012.7 hPa 0 mm - - -
1788551059 33.89° C 100% 1012.6 hPa 0 mm - - -
1788550759 33.89° C 100% 1012.8 hPa 0 mm - - -
1788550459 34.44° C 100% 1013 hPa 0 mm - - -
1788550159 33.89° C 100% 1013 hPa 0 mm - - -
1788549859 33.89° C 100% 1013.1 hPa 0 mm - - -
1788549559 34.44° C 100% 1012.9 hPa 0 mm - - -
1788549259 34.44° C 100% 1012.9 hPa 0.25 mm - - -
1788548959 34.44° C 100% 1013.3 hPa 0.25 mm - - -
1788548659 33.33° C 100% 1013.3 hPa 0.25 mm - - -
1788548359 34.44° C 100% 1013.3 hPa 0.25 mm - - -
1788548059 34.44° C 100% 1013.4 hPa 0.25 mm - - -
1788547759 33.33° C 100% 1013.4 hPa 0.25 mm - - -
1788547459 33.89° C 100% 1013.5 hPa 0.25 mm - - -
1788547159 33.89° C 100% 1013.5 hPa 0.25 mm - - -
1788546859 33.33° C 100% 1013.6 hPa 0.25 mm - - -
1788546559 33.33° C 100% 1013.7 hPa 0.25 mm - - -
1788546259 32.78° C 100% 1013.8 hPa 0.25 mm - - -
1788545959 31.11° C 100% 1014 hPa 0.25 mm - - -
1788545659 30° C 100% 1014 hPa 0 mm - - -
1788545359 30.56° C 100% 1013.9 hPa 0 mm - - -

* Rain latest hour (hover to see other rain measurements)
** Current wind speed in m/s (hover to see current wind gust speed)